SCP
0 0 0 0 0 0 0 0 0 0 0 0 0 0 0 0 0 0 0 0 0 0 0 0 0 0 0 0 0 0 0 0 0 0 0 0 0 0 0 0 0 0 0 0
0 0 0 0 0 0 0 0 0 0 0 0 0 0 0 0 0 0 0 0 0 0 0 0 0 0 -0 0 0 0 0 0 0 0 0 0 0 0 0 0 0 0 0 0
0 0 0 0 0 0 0 0 0 0 0 0 0 0 0 0 0 0 0 0 0 0 0 0 0 0 0 -0 0 0 0 0 0 0 0 0 0 0 0 0 0 0 0 0
0 0 0 0 0 0 0 0 0 0 0 0 0 0 0 0 0 0 0 0 0 0 0 0 0 0 0 0 0 0 0 0 0 0 0 0 0 0 0 0 0 0 0 0
0 0 0 0 0 0 0 0 0 0 0 0 0 0 0 0 0 0 0 0 0 0 0 0 0 0 0 0 0 0 0 0 0 0 0 0 0 0 0 0 0 0 0 0
0 0 0 0 0 0 0 0 0 0 0 0 0 0 0 0 0 0 0 0 0 0 0 0 0 0 -0 0 0 0 0 0 0 0 0 0 0 0 0 0 0 0 0 0
0 0 0 0 0 0 0 0 0 0 0 0 0 0 0 0 0 0 0 0 0 0 0 0 0 0 0 0 0 0 0 0 0 0 0 0 0 0 0 0 0 0 0 0
0 0 0 0 0 0 0 0 0 0 0 0 0 0 0 0 0 0 0 0 0 0 0 0 0 0 0 0 0 -0 0 0 0 0 0 0 0 0 0 0 0 0 0 0
0 0 0 0 0 0 0 0 0 0 0 0 0 0 0 0 0 0 0 0 0 0 0 0 0 0 0 -0 -0 -0 -0 -0 0 0 0 0 0 0 0 0 0 0 0 0
0 0 0 0 0 0 0 0 0 0 0 0 0 0 0 0 0 0 0 0 0 0 0 0 0 -0 0 0 -0 -0 -0 0 0 0 0 0 0 0 0 0 0 0 0 0
0 0 0 0 0 0 0 0 0 0 0 0 0 0 0 0 0 0 0 0 0 0 0 0 0 0 0 0 -0 -0 -0 0 0 0 0 0 0 0 0 0 0 0 0 0
0 0 0 0 0 0 0 0 0 0 0 0 0 0 0 0 0 0 0 0 0 0 0 0 0 0 -0 -0 -0 0 0 0 0 0 0 0 0 0 0 0 0 0 0 0
0 0 0 0 0 0 0 0 0 0 0 0 0 0 0 0 0 0 0 0 0 0 0 0 0 0 0 -0 -0 0 0 0 0 0 0 0 0 0 0 0 0 0 0 0
0 0 0 0 0 0 0 0 0 0 0 0 0 0 0 0 0 0 0 0 0 0 0 0 0 0 0 0 0 0 0 0 0 0 0 0 0 0 0 0 0 0 0 0
0 0 0 0 0 0 0 0 0 0 0 0 0 0 0 0 0 0 0 0 0 0 0 0 0 0 0 0 0 0 0 0 0 0 0 0 0 0 0 0 0 0 0 0
0 0 0 0 0 0 0 0 0 0 0 0 0 0 0 0 0 0 0 0 0 0 0 0 0 0 0 0 0 0 0 0 0 0 0 0 0 0 0 0 0 0 0 0
0 0 0 0 0 0 0 0 0 0 0 0 0 0 0 0 0 0 0 0 0 0 0 0 0 -0 0 0 0 0 0 0 0 0 0 0 0 0 0 -0 0 0 0 0
0 0 0 0 0 0 0 0 0 0 0 0 0 0 0 0 0 0 0 0 0 0 0 0 0 0 0 0 0 0 0 0 0 0 0 0 0 0 0 0 0 0 0 0
0 0 0 0 0 0 0 0 0 0 0 0 0 0 0 0 0 0 0 0 0 0 0 0 0 0 0 0 0 0 0 0 0 0 0 0 0 0 0 -0 0 0 0 0
0 0 0 0 -0 -0 0 0 0 0 0 0 0 0 0 0 0 0 0 0 0 0 0 0 0 0 0 -0 0 0 0 0 0 0 0 0 0 -0 -0 0 0 0 0 0
0 0 -0 -0 -0 0 0 0 0 0 0 0 0 0 0 0 0 0 0 0 0 0 0 0 0 0 -0 -0 -0 0 0 0 0 0 0 0 -0 -0 0 0 0 0 0 0
-0 -0 -0 0 0 0 0 0 0 0 0 0 0 0 0 0 0 0 0 -0 0 0 0 0 0 0 -0 -0 -0 0 0 0 0 0 0 -0 -0 0 0 0 -0 0 0 0
0 0 0 0 0 0 0 0 0 0 0 0 0 0 0 0 0 -0 -0 -0 -0 -0 0 0 0 -0 -0 0 0 0 0 0 0 0 0 -0 0 0 -0 -0 0 0 0 0
0 0 0 0 0 0 0 0 0 0 -0 -0 -0 0 0 0 0 0 0 -0 -0 -0 0 -0 -0 -0 0 0 0 0 0 0 0 0 0 0 0 0 -0 0 0 0 0 0
0 -0 -0 -0 0 0 0 0 0 0 0 0 0 0 -0 -0 0 0 0 0 0 0 -0 -0 -0 -0 0 0 0 0 -0 -0 -0 -0 0 0 0 -0 -0 -0 0 0 0 0
-0 -0 0 -0 -0 0 0 0 0 0 0 0 0 0 0 0 0 0 0 0 0 0 0 0 0 0 0 0 0 -0 0 0 0 0 0 0 0 -0 -0 0 0 0 0 0
0 -0 -0 -0 -0 -0 -0 0 0 0 0 0 0 0 0 0 0 0 0 0 0 0 0 0 0 0 0 0 0 0 0 0 0 0 0 0 -0 -0 -0 0 0 0 0 0
Wind_Speed_500mb
6 8 6 7 10 10 12 12 11 15 16 23 14 13 31 24 24 18 10 9 19 26 30 34 36 31 24 21 24 29 40 48 44 44 50 51 50 50 49 46 39 33 32 32
6 4 10 7 14 14 14 13 15 16 21 12 23 11 25 33 23 13 8 10 19 26 32 38 40 37 33 22 19 27 33 41 49 45 46 49 50 50 49 44 42 39 38 36
9 3 5 9 18 19 10 8 10 13 16 5 3 10 20 30 22 15 7 7 16 25 34 40 44 41 36 33 26 30 29 36 45 50 47 45 47 51 54 49 45 42 42 43
7 3 9 12 7 7 13 8 10 10 13 10 15 19 26 23 18 14 10 9 13 19 25 36 42 43 41 38 29 31 36 38 44 44 52 49 49 53 56 50 47 45 49 45
7 9 11 10 10 10 13 13 9 9 5 22 29 24 14 15 12 8 5 4 9 17 25 34 40 43 46 41 36 30 24 29 36 41 52 56 52 58 61 58 50 51 50 43
5 7 12 10 6 21 4 9 14 21 19 19 16 7 8 12 7 5 6 7 12 18 29 38 42 42 41 46 46 33 27 21 24 36 44 53 61 57 64 59 52 52 47 37
6 10 13 8 23 11 5 11 11 27 37 15 6 13 16 22 19 13 11 9 12 20 27 39 45 45 42 39 39 40 37 27 29 36 45 48 60 67 63 60 48 49 42 31
4 4 14 11 5 3 6 4 6 12 22 13 13 16 25 26 21 19 17 19 21 24 25 31 44 49 46 38 37 37 39 38 31 35 37 48 58 60 67 57 55 59 41 30
14 10 8 5 1 7 8 4 2 5 11 17 22 23 21 17 16 19 22 24 27 32 36 33 35 47 50 41 37 40 38 45 36 32 33 39 47 59 59 52 53 48 35 25
1 5 8 10 13 10 5 3 5 11 13 16 20 21 22 27 29 38 42 41 44 42 46 55 46 42 44 44 38 42 40 37 36 33 35 29 36 46 55 51 48 43 19 29
6 10 10 18 12 9 8 12 19 24 27 29 31 30 30 36 43 40 42 46 44 43 46 47 46 45 45 43 38 40 42 40 39 35 29 30 37 44 41 38 42 26 27 23
22 17 22 25 31 27 29 48 48 44 40 38 34 35 40 44 41 44 54 56 53 51 50 45 44 48 50 43 41 40 43 43 42 37 31 29 36 38 37 40 28 30 31 26
37 49 36 29 32 42 57 47 41 41 40 49 50 49 52 56 53 53 53 50 50 52 52 53 49 54 58 50 42 41 40 44 43 35 31 39 39 48 45 41 39 40 30 27
38 37 39 49 57 44 52 54 54 55 54 54 57 57 58 60 60 58 56 57 59 64 68 63 62 69 65 58 46 44 40 42 44 43 36 33 47 53 53 45 44 39 33 26
41 45 56 54 54 57 51 51 54 53 51 53 54 54 53 51 51 51 53 54 61 66 64 62 63 73 74 59 46 43 41 44 44 45 41 31 35 48 50 46 38 39 39 31
50 55 58 60 62 58 51 42 39 46 51 51 53 54 54 53 53 55 55 55 54 69 69 66 67 69 58 48 44 43 41 41 41 41 39 34 32 54 51 52 45 40 34 30
29 27 20 24 27 31 36 39 42 50 53 53 54 49 42 45 49 50 54 53 55 63 62 68 67 65 52 46 46 45 40 37 38 40 36 33 37 52 54 47 44 38 31 30
24 30 34 35 41 45 55 60 59 60 59 55 54 57 57 57 64 67 66 54 52 57 63 61 61 60 54 43 38 36 38 38 36 34 26 27 60 62 52 43 40 36 36 31
26 36 44 46 56 66 73 75 72 73 73 69 65 66 66 68 71 69 59 58 56 55 61 53 56 54 47 44 46 47 40 39 35 31 28 65 64 63 53 45 40 38 35 26
50 53 61 71 78 82 83 82 82 81 80 77 70 68 68 68 63 57 53 56 55 57 46 36 32 28 28 34 42 39 36 38 32 25 43 74 70 60 50 41 39 39 30 25
63 73 83 84 89 80 78 73 69 72 68 69 69 70 69 63 62 60 57 57 53 43 40 32 24 16 17 29 38 44 49 43 38 40 62 76 67 55 47 41 41 34 31 20
80 82 81 83 81 79 73 69 64 64 65 65 60 61 70 73 77 66 56 56 48 37 35 33 29 19 22 39 50 58 49 47 55 71 89 76 63 46 42 43 41 34 24 15
81 78 74 67 68 67 66 67 68 65 58 61 63 57 55 55 56 55 56 56 47 38 34 32 27 21 21 16 3 32 59 72 91 92 80 62 47 42 46 45 38 28 18 12
65 71 69 65 68 68 71 61 52 52 49 47 45 44 44 46 44 51 57 53 46 40 40 39 35 24 29 34 36 54 76 83 77 65 52 49 44 49 47 41 31 22 14 10
72 68 69 68 65 64 60 60 49 43 38 37 35 33 31 33 40 34 31 31 32 40 47 41 37 34 37 43 65 74 62 44 41 38 39 48 57 51 41 30 21 18 15 13
73 68 62 57 58 59 48 35 36 34 30 30 28 22 17 19 22 21 23 27 28 34 43 43 37 38 44 70 67 48 43 37 39 52 63 59 48 39 32 28 25 21 16 13
50 46 48 47 44 34 28 29 33 25 22 23 13 13 11 10 22 31 30 33 34 34 41 53 59 75 89 75 53 42 55 61 64 64 54 46 39 36 34 30 26 21 17 16
Wind_Direction_500mb
260 225 194 214 226 197 193 211 184 251 205 252 262 250 254 205 166 147 104 50 25 18 7 354 348 343 324 292 274 265 261 251 248 246 239 235 230 229 233 225 231 226 223 219
303 258 231 255 268 254 225 243 242 259 273 265 291 262 187 173 155 137 111 45 20 16 8 359 350 337 330 312 290 275 261 253 249 248 240 236 231 229 229 231 232 225 220 211
248 356 330 295 231 228 219 191 192 231 240 318 29 100 150 161 155 137 110 49 36 32 21 11 5 354 339 318 283 267 267 259 249 250 242 239 233 229 227 224 229 226 215 208
214 17 248 248 297 204 207 215 222 266 266 234 164 134 135 142 138 124 109 81 45 24 14 9 7 6 0 353 335 286 268 264 257 258 251 240 233 229 225 223 219 226 221 219
179 204 295 311 262 193 185 248 211 236 177 146 138 128 115 136 134 124 92 49 14 4 0 1 1 5 5 1 9 358 324 283 273 267 262 251 243 232 225 221 225 213 226 224
133 210 236 242 311 5 105 277 209 191 169 151 149 151 241 173 186 222 263 300 329 342 351 351 352 356 357 3 2 355 347 314 289 280 278 269 257 246 235 229 225 224 226 212
175 239 285 251 303 318 163 248 170 177 171 174 188 211 190 191 195 217 260 289 326 336 345 354 350 347 350 353 355 354 345 317 306 296 284 278 268 256 245 232 218 217 225 215
114 215 275 344 3 210 239 40 210 190 205 239 234 206 196 209 221 231 247 268 283 300 316 341 350 345 348 348 347 345 341 334 315 301 299 293 274 265 254 231 214 212 206 211
178 218 271 325 253 118 62 141 171 221 225 231 220 212 212 221 247 262 278 285 292 300 306 310 338 338 336 342 339 342 334 336 320 305 299 291 292 273 266 228 210 212 198 196
34 219 196 145 127 130 113 11 284 236 233 238 258 272 265 272 270 280 286 293 292 302 307 302 317 328 327 331 326 333 330 329 332 312 303 304 298 277 256 219 202 184 202 200
258 274 248 208 204 210 254 296 304 303 286 267 258 243 250 256 258 261 269 273 278 284 293 299 309 314 323 324 318 319 328 324 324 322 321 314 286 264 240 208 194 178 196 202
259 242 268 275 273 249 291 303 299 287 274 268 273 278 270 270 273 278 276 274 272 273 280 286 301 306 318 313 310 309 324 320 321 321 312 299 281 244 216 193 180 171 189 215
271 285 285 276 268 280 293 295 295 288 280 272 277 279 280 281 280 276 276 278 271 269 275 279 284 291 301 308 305 301 310 314 313 314 301 276 272 231 198 179 196 182 187 209
278 282 279 282 289 302 300 298 300 297 288 282 281 281 279 275 274 271 271 274 276 277 276 278 283 285 286 294 293 293 296 308 305 316 301 290 259 242 203 191 177 178 185 186
271 281 285 288 285 286 287 286 289 287 284 281 280 282 283 277 272 272 272 274 276 271 274 273 274 275 279 281 284 287 286 298 300 300 306 288 281 232 193 177 169 178 172 164
290 288 287 286 288 288 286 281 278 278 280 283 284 279 275 275 274 272 273 273 278 273 264 266 273 273 280 276 273 277 279 289 291 292 300 283 256 194 165 158 174 182 176 180
277 297 310 302 304 301 295 292 284 282 283 280 278 277 275 275 276 283 284 284 279 271 272 263 269 270 272 277 277 269 268 278 288 291 291 271 212 161 155 166 176 180 180 183
278 286 299 299 301 300 299 296 290 286 278 282 284 275 271 277 279 284 290 283 278 273 265 265 274 267 267 267 269 265 262 274 284 282 287 233 164 150 157 177 179 183 187 185
282 295 296 292 299 298 295 291 289 290 288 284 279 280 273 272 280 280 279 282 274 278 267 264 274 262 247 252 263 264 260 271 273 269 268 180 167 155 169 180 182 189 187 189
294 293 297 296 296 296 292 287 286 282 279 276 279 278 274 272 272 275 276 276 266 275 268 264 263 256 258 275 267 250 252 267 258 244 220 167 166 171 180 181 185 184 180 177
290 295 298 297 297 295 290 295 293 284 281 276 274 274 266 268 272 279 271 265 263 270 249 244 264 251 272 267 265 260 256 250 238 211 180 164 173 182 182 182 184 179 175 175
299 298 295 295 295 295 297 295 294 290 287 273 258 264 271 272 268 268 256 254 266 260 248 236 242 256 277 276 282 275 250 214 204 183 160 167 183 185 182 183 176 175 171 180
297 298 299 299 298 299 297 293 287 286 283 278 277 277 273 266 261 251 250 249 264 248 231 222 232 256 252 259 188 163 165 172 156 149 155 176 181 181 179 170 170 168 171 180
301 302 302 304 302 296 292 303 302 297 292 284 276 275 269 264 256 248 252 256 260 227 224 222 236 233 201 182 154 124 121 132 146 162 171 175 178 170 161 160 159 162 174 182
302 305 304 306 302 300 306 309 304 298 290 280 277 277 271 256 253 258 247 240 229 219 219 220 221 205 194 186 147 150 154 160 158 160 169 164 156 153 150 151 158 159 158 150
299 300 300 298 299 303 306 303 298 298 292 288 297 288 254 253 240 224 222 226 217 213 208 203 194 177 184 155 165 170 165 166 161 155 149 145 145 146 150 151 145 140 130 121
306 307 304 307 303 310 308 295 296 302 306 294 301 305 287 229 196 188 196 214 219 215 198 185 166 172 156 169 168 154 139 140 148 143 142 142 144 142 138 135 126 119 119 110
Wind_Speed_850mb
6 8 6 7 10 10 12 12 11 15 16 23 14 13 31 24 24 18 10 9 19 26 30 34 36 31 24 21 24 29 40 48 44 44 50 51 50 50 49 46 39 33 32 32
6 4 10 7 14 14 14 13 15 16 21 12 23 11 25 33 23 13 8 10 19 26 32 38 40 37 33 22 19 27 33 41 49 45 46 49 50 50 49 44 42 39 38 36
9 3 5 9 18 19 10 8 10 13 16 5 3 10 20 30 22 15 7 7 16 25 34 40 44 41 36 33 26 30 29 36 45 50 47 45 47 51 54 49 45 42 42 43
7 3 9 12 7 7 13 8 10 10 13 10 15 19 26 23 18 14 10 9 13 19 25 36 42 43 41 38 29 31 36 38 44 44 52 49 49 53 56 50 47 45 49 45
7 9 11 10 10 10 13 13 9 9 5 22 29 24 14 15 12 8 5 4 9 17 25 34 40 43 46 41 36 30 24 29 36 41 52 56 52 58 61 58 50 51 50 43
5 7 12 10 6 21 4 9 14 21 19 19 16 7 8 12 7 5 6 7 12 18 29 38 42 42 41 46 46 33 27 21 24 36 44 53 61 57 64 59 52 52 47 37
6 10 13 8 23 11 5 11 11 27 37 15 6 13 16 22 19 13 11 9 12 20 27 39 45 45 42 39 39 40 37 27 29 36 45 48 60 67 63 60 48 49 42 31
4 4 14 11 5 3 6 4 6 12 22 13 13 16 25 26 21 19 17 19 21 24 25 31 44 49 46 38 37 37 39 38 31 35 37 48 58 60 67 57 55 59 41 30
14 10 8 5 1 7 8 4 2 5 11 17 22 23 21 17 16 19 22 24 27 32 36 33 35 47 50 41 37 40 38 45 36 32 33 39 47 59 59 52 53 48 35 25
1 5 8 10 13 10 5 3 5 11 13 16 20 21 22 27 29 38 42 41 44 42 46 55 46 42 44 44 38 42 40 37 36 33 35 29 36 46 55 51 48 43 19 29
6 10 10 18 12 9 8 12 19 24 27 29 31 30 30 36 43 40 42 46 44 43 46 47 46 45 45 43 38 40 42 40 39 35 29 30 37 44 41 38 42 26 27 23
22 17 22 25 31 27 29 48 48 44 40 38 34 35 40 44 41 44 54 56 53 51 50 45 44 48 50 43 41 40 43 43 42 37 31 29 36 38 37 40 28 30 31 26
37 49 36 29 32 42 57 47 41 41 40 49 50 49 52 56 53 53 53 50 50 52 52 53 49 54 58 50 42 41 40 44 43 35 31 39 39 48 45 41 39 40 30 27
38 37 39 49 57 44 52 54 54 55 54 54 57 57 58 60 60 58 56 57 59 64 68 63 62 69 65 58 46 44 40 42 44 43 36 33 47 53 53 45 44 39 33 26
41 45 56 54 54 57 51 51 54 53 51 53 54 54 53 51 51 51 53 54 61 66 64 62 63 73 74 59 46 43 41 44 44 45 41 31 35 48 50 46 38 39 39 31
50 55 58 60 62 58 51 42 39 46 51 51 53 54 54 53 53 55 55 55 54 69 69 66 67 69 58 48 44 43 41 41 41 41 39 34 32 54 51 52 45 40 34 30
29 27 20 24 27 31 36 39 42 50 53 53 54 49 42 45 49 50 54 53 55 63 62 68 67 65 52 46 46 45 40 37 38 40 36 33 37 52 54 47 44 38 31 30
24 30 34 35 41 45 55 60 59 60 59 55 54 57 57 57 64 67 66 54 52 57 63 61 61 60 54 43 38 36 38 38 36 34 26 27 60 62 52 43 40 36 36 31
26 36 44 46 56 66 73 75 72 73 73 69 65 66 66 68 71 69 59 58 56 55 61 53 56 54 47 44 46 47 40 39 35 31 28 65 64 63 53 45 40 38 35 26
50 53 61 71 78 82 83 82 82 81 80 77 70 68 68 68 63 57 53 56 55 57 46 36 32 28 28 34 42 39 36 38 32 25 43 74 70 60 50 41 39 39 30 25
63 73 83 84 89 80 78 73 69 72 68 69 69 70 69 63 62 60 57 57 53 43 40 32 24 16 17 29 38 44 49 43 38 40 62 76 67 55 47 41 41 34 31 20
80 82 81 83 81 79 73 69 64 64 65 65 60 61 70 73 77 66 56 56 48 37 35 33 29 19 22 39 50 58 49 47 55 71 89 76 63 46 42 43 41 34 24 15
81 78 74 67 68 67 66 67 68 65 58 61 63 57 55 55 56 55 56 56 47 38 34 32 27 21 21 16 3 32 59 72 91 92 80 62 47 42 46 45 38 28 18 12
65 71 69 65 68 68 71 61 52 52 49 47 45 44 44 46 44 51 57 53 46 40 40 39 35 24 29 34 36 54 76 83 77 65 52 49 44 49 47 41 31 22 14 10
72 68 69 68 65 64 60 60 49 43 38 37 35 33 31 33 40 34 31 31 32 40 47 41 37 34 37 43 65 74 62 44 41 38 39 48 57 51 41 30 21 18 15 13
73 68 62 57 58 59 48 35 36 34 30 30 28 22 17 19 22 21 23 27 28 34 43 43 37 38 44 70 67 48 43 37 39 52 63 59 48 39 32 28 25 21 16 13
50 46 48 47 44 34 28 29 33 25 22 23 13 13 11 10 22 31 30 33 34 34 41 53 59 75 89 75 53 42 55 61 64 64 54 46 39 36 34 30 26 21 17 16
Wind_Direction_850mb
260 225 194 214 226 197 193 211 184 251 205 252 262 250 254 205 166 147 104 50 25 18 7 354 348 343 324 292 274 265 261 251 248 246 239 235 230 229 233 225 231 226 223 219
303 258 231 255 268 254 225 243 242 259 273 265 291 262 187 173 155 137 111 45 20 16 8 359 350 337 330 312 290 275 261 253 249 248 240 236 231 229 229 231 232 225 220 211
248 356 330 295 231 228 219 191 192 231 240 318 29 100 150 161 155 137 110 49 36 32 21 11 5 354 339 318 283 267 267 259 249 250 242 239 233 229 227 224 229 226 215 208
214 17 248 248 297 204 207 215 222 266 266 234 164 134 135 142 138 124 109 81 45 24 14 9 7 6 0 353 335 286 268 264 257 258 251 240 233 229 225 223 219 226 221 219
179 204 295 311 262 193 185 248 211 236 177 146 138 128 115 136 134 124 92 49 14 4 0 1 1 5 5 1 9 358 324 283 273 267 262 251 243 232 225 221 225 213 226 224
133 210 236 242 311 5 105 277 209 191 169 151 149 151 241 173 186 222 263 300 329 342 351 351 352 356 357 3 2 355 347 314 289 280 278 269 257 246 235 229 225 224 226 212
175 239 285 251 303 318 163 248 170 177 171 174 188 211 190 191 195 217 260 289 326 336 345 354 350 347 350 353 355 354 345 317 306 296 284 278 268 256 245 232 218 217 225 215
114 215 275 344 3 210 239 40 210 190 205 239 234 206 196 209 221 231 247 268 283 300 316 341 350 345 348 348 347 345 341 334 315 301 299 293 274 265 254 231 214 212 206 211
178 218 271 325 253 118 62 141 171 221 225 231 220 212 212 221 247 262 278 285 292 300 306 310 338 338 336 342 339 342 334 336 320 305 299 291 292 273 266 228 210 212 198 196
34 219 196 145 127 130 113 11 284 236 233 238 258 272 265 272 270 280 286 293 292 302 307 302 317 328 327 331 326 333 330 329 332 312 303 304 298 277 256 219 202 184 202 200
258 274 248 208 204 210 254 296 304 303 286 267 258 243 250 256 258 261 269 273 278 284 293 299 309 314 323 324 318 319 328 324 324 322 321 314 286 264 240 208 194 178 196 202
259 242 268 275 273 249 291 303 299 287 274 268 273 278 270 270 273 278 276 274 272 273 280 286 301 306 318 313 310 309 324 320 321 321 312 299 281 244 216 193 180 171 189 215
271 285 285 276 268 280 293 295 295 288 280 272 277 279 280 281 280 276 276 278 271 269 275 279 284 291 301 308 305 301 310 314 313 314 301 276 272 231 198 179 196 182 187 209
278 282 279 282 289 302 300 298 300 297 288 282 281 281 279 275 274 271 271 274 276 277 276 278 283 285 286 294 293 293 296 308 305 316 301 290 259 242 203 191 177 178 185 186
271 281 285 288 285 286 287 286 289 287 284 281 280 282 283 277 272 272 272 274 276 271 274 273 274 275 279 281 284 287 286 298 300 300 306 288 281 232 193 177 169 178 172 164
290 288 287 286 288 288 286 281 278 278 280 283 284 279 275 275 274 272 273 273 278 273 264 266 273 273 280 276 273 277 279 289 291 292 300 283 256 194 165 158 174 182 176 180
277 297 310 302 304 301 295 292 284 282 283 280 278 277 275 275 276 283 284 284 279 271 272 263 269 270 272 277 277 269 268 278 288 291 291 271 212 161 155 166 176 180 180 183
278 286 299 299 301 300 299 296 290 286 278 282 284 275 271 277 279 284 290 283 278 273 265 265 274 267 267 267 269 265 262 274 284 282 287 233 164 150 157 177 179 183 187 185
282 295 296 292 299 298 295 291 289 290 288 284 279 280 273 272 280 280 279 282 274 278 267 264 274 262 247 252 263 264 260 271 273 269 268 180 167 155 169 180 182 189 187 189
294 293 297 296 296 296 292 287 286 282 279 276 279 278 274 272 272 275 276 276 266 275 268 264 263 256 258 275 267 250 252 267 258 244 220 167 166 171 180 181 185 184 180 177
290 295 298 297 297 295 290 295 293 284 281 276 274 274 266 268 272 279 271 265 263 270 249 244 264 251 272 267 265 260 256 250 238 211 180 164 173 182 182 182 184 179 175 175
299 298 295 295 295 295 297 295 294 290 287 273 258 264 271 272 268 268 256 254 266 260 248 236 242 256 277 276 282 275 250 214 204 183 160 167 183 185 182 183 176 175 171 180
297 298 299 299 298 299 297 293 287 286 283 278 277 277 273 266 261 251 250 249 264 248 231 222 232 256 252 259 188 163 165 172 156 149 155 176 181 181 179 170 170 168 171 180
301 302 302 304 302 296 292 303 302 297 292 284 276 275 269 264 256 248 252 256 260 227 224 222 236 233 201 182 154 124 121 132 146 162 171 175 178 170 161 160 159 162 174 182
302 305 304 306 302 300 306 309 304 298 290 280 277 277 271 256 253 258 247 240 229 219 219 220 221 205 194 186 147 150 154 160 158 160 169 164 156 153 150 151 158 159 158 150
299 300 300 298 299 303 306 303 298 298 292 288 297 288 254 253 240 224 222 226 217 213 208 203 194 177 184 155 165 170 165 166 161 155 149 145 145 146 150 151 145 140 130 121
306 307 304 307 303 310 308 295 296 302 306 294 301 305 287 229 196 188 196 214 219 215 198 185 166 172 156 169 168 154 139 140 148 143 142 142 144 142 138 135 126 119 119 110